FW0155 Weather Reports


time (UTC)temp
C
wind
direction
speed
KPH
gust
KPH
rain 1hr
cm
rain 24hr
cm
rain mn
cm
humidity
%
barometer
mb
20260508033404 6 183 0.0 0.0 0.00 0.00 0.00 91 1017.0
20260508032333 6 183 0.0 0.0 0.00 0.00 0.00 92 1017.2
20260508031333 6 184 0.0 0.0 0.00 0.00 0.00 92 1016.9
20260508030333 6 182 0.0 0.0 0.00 0.00 0.00 91 1017.0
20260508025332 6 182 0.0 0.0 0.00 0.00 0.00 91 1017.0
20260508024333 6 182 0.0 0.0 0.00 0.00 0.00 91 1017.3
20260508023332 6 182 0.0 0.0 0.00 0.00 0.00 90 1017.1
20260508022331 6 182 0.0 0.0 0.00 0.00 0.00 90 1017.2
20260508021331 7 182 0.0 0.0 0.00 0.00 0.00 89 1017.2
20260508020302 7 182 0.0 0.0 0.00 0.00 0.00 88 1017.1
20260508015300 7 182 0.0 0.0 0.00 0.00 0.00 88 1017.1
20260508014301 8 182 0.0 0.0 0.00 0.00 0.00 88 1017.0
20260508013259 8 182 0.0 0.0 0.00 0.00 0.00 88 1017.2
20260508012742 8 182 0.0 0.0 0.00 0.00 0.00 87 1017.0
20260508011258 8 182 0.0 0.0 0.00 0.00 0.00 87 1017.0
20260508010257 8 182 0.0 0.0 0.00 0.00 0.00 87 1017.0
20260508005258 8 182 0.0 0.0 0.00 0.00 0.00 87 1017.0
20260508003257 8 186 0.0 0.0 0.00 0.00 0.00 87 1017.0
20260508002257 8 186 0.0 0.0 0.00 0.00 0.00 86 1017.2
20260508001255 8 186 0.0 1.6 0.00 0.00 0.00 86 1017.1
20260508000227 8 179 0.0 0.0 0.00 0.00 0.00 86 1017.2
20260507235225 8 179 0.0 0.0 0.00 0.00 0.00 85 1017.3
20260507234224 8 179 0.0 1.6 0.00 0.00 0.00 85 1017.3
20260507233226 9 173 0.0 0.0 0.00 0.00 0.00 85 1017.4
20260507232224 9 172 0.0 1.6 0.00 0.00 0.00 85 1017.4
20260507231223 9 166 0.0 1.6 0.00 0.00 0.00 84 1017.6
20260507225223 9 166 0.0 1.6 0.00 0.00 0.00 84 1017.6
20260507224222 9 217 0.0 1.6 0.00 0.00 0.00 83 1017.8
20260507223222 9 172 0.0 1.6 0.00 0.00 0.00 83 1017.7
20260507222221 9 193 0.0 1.6 0.00 0.00 0.00 83 1017.6
20260507221223 9 204 0.0 3.2 0.00 0.00 0.00 82 1017.5
20260507220222 9 167 0.0 3.2 0.00 0.00 0.00 82 1017.7
20260507215150 9 182 0.0 3.2 0.00 0.00 0.00 82 1017.9
20260507214150 9 163 1.6 3.2 0.00 0.00 0.00 81 1017.9
20260507213150 9 146 0.0 3.2 0.00 0.00 0.00 81 1017.8
20260507212149 9 192 0.0 3.2 0.00 0.00 0.00 80 1017.8
20260507211149 10 173 0.0 3.2 0.00 0.00 0.00 80 1017.8
20260507210150 10 198 0.0 3.2 0.00 0.00 0.00 79 1017.7
20260507205148 10 178 0.0 1.6 0.00 0.00 0.00 79 1017.6
20260507204147 10 195 0.0 4.8 0.00 0.00 0.00 79 1017.3
20260507203148 10 182 0.0 3.2 0.00 0.00 0.00 78 1017.4
20260507202148 10 171 1.6 4.8 0.00 0.00 0.00 78 1017.2
20260507201146 10 240 1.6 4.8 0.00 0.00 0.00 77 1017.2
20260507200631 10 208 0.0 3.2 0.00 0.00 0.00 77 1017.0
20260507195147 10 197 0.0 3.2 0.00 0.00 0.00 77 1017.1
20260507194146 10 184 0.0 1.6 0.00 0.00 0.00 77 1016.9
20260507193625 10 173 0.0 3.2 0.00 0.00 0.00 76 1017.0
20260507192146 10 228 0.0 3.2 0.00 0.00 0.00 75 1016.8
20260507191143 10 165 0.0 3.2 0.00 0.00 0.00 75 1017.0
20260507190143 10 146 1.6 3.2 0.00 0.00 0.00 74 1017.0
20260507185145 10 150 0.0 4.8 0.00 0.00 0.00 73 1016.9
20260507184620 10 180 1.6 4.8 0.00 0.00 0.00 73 1017.1
20260507183143 11 255 3.2 3.2 0.00 0.00 0.00 72 1017.0
20260507182143 11 190 1.6 3.2 0.00 0.00 0.00 72 1016.8
20260507181141 11 208 0.0 6.4 0.00 0.00 0.00 71 1016.8
20260507180141 11 201 0.0 6.4 0.00 0.00 0.00 70 1016.6
20260507175140 11 225 1.6 4.8 0.00 0.00 0.00 70 1016.8
20260507174140 11 200 0.0 4.8 0.00 0.00 0.00 69 1016.7
20260507173140 11 222 0.0 3.2 0.00 0.00 0.00 69 1016.7
20260507172140 11 173 1.6 6.4 0.00 0.00 0.00 68 1016.7
20260507171620 11 215 3.2 6.4 0.00 0.00 0.00 68 1016.7
20260507170545 11 224 0.0 4.8 0.00 0.00 0.00 68 1016.7
20260507165110 11 231 0.0 6.4 0.00 0.00 0.00 68 1016.7
20260507164108 11 249 3.2 6.4 0.00 0.00 0.00 67 1016.7
20260507163109 12 162 0.0 6.4 0.00 0.00 0.00 66 1016.7
20260507162547 12 242 1.6 9.7 0.00 0.00 0.00 65 1016.8
20260507161546 12 234 1.6 6.4 0.00 0.00 0.00 64 1016.7
20260507160108 12 241 3.2 12.9 0.00 0.00 0.00 64 1016.7
20260507155106 12 217 3.2 6.4 0.00 0.00 0.00 64 1016.6
20260507154037 12 154 3.2 6.4 0.00 0.00 0.00 63 1016.6
20260507153035 12 237 0.0 9.7 0.00 0.00 0.00 64 1016.3
20260507152035 12 210 3.2 4.8 0.00 0.00 0.00 63 1016.7
20260507151035 12 241 3.2 4.8 0.00 0.00 0.00 62 1016.6
20260507150521 12 219 3.2 4.8 0.00 0.00 0.00 61 1016.7
20260507145033 12 248 1.6 6.4 0.00 0.00 0.00 61 1016.7
20260507144033 13 220 0.0 6.4 0.00 0.00 0.00 60 1016.6
20260507143033 13 230 1.6 4.8 0.00 0.00 0.00 58 1016.8
20260507142035 13 183 0.0 9.7 0.00 0.00 0.00 58 1016.7
20260507141032 13 219 1.6 9.7 0.00 0.00 0.00 58 1016.8
20260507140033 13 150 3.2 9.7 0.00 0.00 0.00 60 1016.9
20260507135032 13 213 4.8 12.9 0.00 0.00 0.00 60 1016.9
20260507134001 15 205 1.6 11.3 0.00 0.00 0.00 56 1017.0
20260507133002 15 251 3.2 12.9 0.00 0.00 0.00 56 1016.8
20260507131959 16 280 3.2 11.3 0.00 0.00 0.00 52 1016.9
20260507131438 16 295 3.2 9.7 0.00 0.00 0.00 52 1017.0
20260507130446 15 120 4.8 9.7 0.00 0.00 0.00 52 1016.9
20260507124959 15 237 4.8 6.4 0.00 0.03 0.00 52 1017.2
20260507123959 13 250 0.0 3.2 0.00 0.05 0.00 58 1017.1
20260507122959 13 270 1.6 6.4 0.00 0.05 0.00 58 1017.1
20260507121959 13 271 1.6 6.4 0.00 0.05 0.00 57 1016.9
20260507121433 15 273 1.6 3.2 0.00 0.05 0.00 53 1017.2
20260507115958 15 228 1.6 3.2 0.00 0.05 0.00 55 1017.1
20260507114959 13 278 1.6 6.4 0.00 0.05 0.00 58 1017.2
20260507113956 13 283 1.6 6.4 0.00 0.08 0.00 59 1017.2
20260507112956 12 231 1.6 4.8 0.00 0.08 0.00 60 1017.2
20260507112440 12 167 0.0 3.2 0.00 0.10 0.00 62 1017.4
20260507110955 12 260 0.0 4.8 0.00 0.13 0.00 61 1017.6
20260507110446 12 263 1.6 6.4 0.00 0.18 0.00 61 1017.7
20260507104955 12 261 1.6 1.6 0.00 0.23 0.00 65 1017.5
20260507104428 11 244 0.0 3.2 0.00 0.23 0.00 64 1017.5
20260507102954 11 274 1.6 3.2 0.00 0.25 0.00 64 1017.6
20260507102440 11 264 1.6 4.8 0.00 0.30 0.00 65 1017.3
20260507100922 12 234 0.0 4.8 0.00 0.36 0.00 64 1017.4
20260507095922 11 246 0.0 4.8 0.00 0.38 0.00 64 1017.4
20260507093922 12 253 1.6 4.8 0.00 0.38 0.00 60 1017.5
20260507092922 12 226 1.6 3.2 0.00 0.38 0.00 61 1017.4
20260507091921 11 223 0.0 3.2 0.00 0.38 0.00 61 1017.4
20260507090920 11 249 1.6 3.2 0.00 0.38 0.00 61 1017.4
20260507085919 11 234 1.6 3.2 0.00 0.38 0.00 62 1017.2
20260507084850 11 236 0.0 3.2 0.00 0.38 0.00 62 1017.5
20260507083849 11 255 0.0 4.8 0.00 0.38 0.00 62 1017.3
20260507082848 12 234 0.0 1.6 0.00 0.38 0.00 61 1017.2
20260507081848 10 225 0.0 4.8 0.00 0.41 0.00 67 1017.2
20260507080817 10 247 0.0 4.8 0.00 0.43 0.00 66 1017.1
20260507075824 10 160 0.0 3.2 0.00 0.43 0.00 67 1017.1
20260507074818 10 242 0.0 1.6 0.00 0.46 0.00 69 1017.1
20260507073816 10 259 0.0 1.6 0.00 0.51 0.00 71 1017.1
20260507072748 10 276 0.0 1.6 0.00 0.53 0.00 72 1016.9
20260507071745 9 276 0.0 1.6 0.00 0.58 0.00 74 1016.8
20260507070747 9 276 1.6 3.2 0.00 0.58 0.00 73 1016.9
20260507065745 9 231 0.0 1.6 0.00 0.58 0.00 74 1016.9
20260507064746 9 232 0.0 1.6 0.00 0.58 0.00 75 1016.8
20260507063744 9 229 0.0 1.6 0.00 0.58 0.00 76 1016.8
20260507062743 9 228 0.0 1.6 0.00 0.61 0.00 76 1016.9
20260507061745 9 232 0.0 1.6 0.00 0.61 0.00 76 1016.7
20260507060744 9 286 0.0 1.6 0.00 0.64 0.00 77 1016.7
20260507060218 8 286 0.0 1.6 0.00 0.64 0.00 78 1016.4
20260507054742 8 286 0.0 1.6 0.00 0.64 0.00 82 1016.3
20260507053743 8 286 0.0 1.6 0.00 0.64 0.00 84 1016.3
20260507052741 7 286 0.0 0.0 0.00 0.64 0.00 86 1016.2
20260507051710 7 286 0.0 0.0 0.00 0.64 0.00 87 1016.2
20260507050710 7 286 0.0 0.0 0.00 0.64 0.00 87 1016.2
20260507045710 7 286 0.0 0.0 0.00 0.64 0.00 87 1016.0
20260507044710 7 286 0.0 0.0 0.00 0.64 0.00 87 1016.1
20260507043709 7 286 0.0 0.0 0.00 0.64 0.00 87 1016.0
20260507042710 7 286 0.0 0.0 0.00 0.64 0.00 87 1015.8
20260507042146 7 286 0.0 1.6 0.00 0.64 0.00 87 1016.0
20260507040638 7 286 0.0 0.0 0.00 0.64 0.00 86 1015.7
20260507035639 7 286 0.0 1.6 0.00 0.64 0.00 85 1015.7
20260507034637 7 286 0.0 1.6 0.00 0.64 0.00 84 1015.9